Time,TemperatureF,DewpointF,PressureIn,WindDirection,WindDirectionDegrees,WindSpeedMPH,WindSpeedGustMPH,Humidity,HourlyPrecipIn,Conditions,Clouds,dailyrainin,SoftwareType,DateUTC
2013-04-28 00:02:00,48.8,48.0,30.02,NW,316,5.0,7.0,98,0.00,,,0.00,weatherlink.com 1.10,2013-04-28 05:02:00,
2013-04-28 00:17:00,48.7,48.0,30.02,NW,309,3.0,7.0,98,0.00,,,0.00,weatherlink.com 1.10,2013-04-28 05:17:00,
2013-04-28 00:32:00,48.6,48.0,30.01,NW,312,5.0,8.0,98,0.00,,,0.00,weatherlink.com 1.10,2013-04-28 05:32:00,
2013-04-28 00:47:00,48.7,48.0,30.01,NW,306,5.0,8.0,98,0.00,,,0.00,weatherlink.com 1.10,2013-04-28 05:47:00,
2013-04-28 01:02:00,48.6,48.0,30.01,NW,309,5.0,9.0,98,0.00,,,0.00,weatherlink.com 1.10,2013-04-28 06:02:00,
2013-04-28 01:17:00,48.5,48.0,30.01,NW,304,4.0,6.0,98,0.00,,,0.00,weatherlink.com 1.10,2013-04-28 06:17:00,
2013-04-28 01:32:00,48.5,48.0,30.01,WNW,298,4.0,6.0,98,0.00,,,0.00,weatherlink.com 1.10,2013-04-28 06:32:00,
2013-04-28 01:47:00,48.5,48.0,30.00,NNW,333,7.0,9.0,98,0.00,,,0.00,weatherlink.com 1.10,2013-04-28 06:47:00,
2013-04-28 02:02:00,48.5,48.0,30.00,West,280,3.0,7.0,98,0.00,,,0.00,weatherlink.com 1.10,2013-04-28 07:02:00,
2013-04-28 02:17:00,48.4,48.0,30.00,NW,309,6.0,8.0,97,0.00,,,0.00,weatherlink.com 1.10,2013-04-28 07:17:00,
2013-04-28 02:32:00,48.4,48.0,30.00,NW,306,6.0,8.0,97,0.00,,,0.00,weatherlink.com 1.10,2013-04-28 07:32:00,
2013-04-28 02:47:00,48.2,47.0,29.99,WNW,298,4.0,9.0,97,0.00,,,0.00,weatherlink.com 1.10,2013-04-28 07:47:00,
2013-04-28 03:02:00,48.2,47.0,29.99,WNW,300,5.0,9.0,96,0.00,,,0.00,weatherlink.com 1.10,2013-04-28 08:02:00,
2013-04-28 03:17:00,48.2,47.0,29.99,WNW,296,3.0,8.0,95,0.00,,,0.00,weatherlink.com 1.10,2013-04-28 08:17:00,
2013-04-28 03:32:00,48.3,47.0,29.98,NW,305,8.0,9.0,95,0.00,,,0.00,weatherlink.com 1.10,2013-04-28 08:32:00,
2013-04-28 03:47:00,48.2,47.0,29.98,West,279,5.0,9.0,96,0.00,,,0.00,weatherlink.com 1.10,2013-04-28 08:47:00,
2013-04-28 04:02:00,48.3,47.0,29.99,West,276,5.0,9.0,96,0.00,,,0.00,weatherlink.com 1.10,2013-04-28 09:02:00,
2013-04-28 04:17:00,48.1,47.0,29.99,SW,236,6.0,11.0,97,0.00,,,0.00,weatherlink.com 1.10,2013-04-28 09:17:00,
2013-04-28 04:32:00,47.9,47.0,29.99,West,263,6.0,10.0,96,0.00,,,0.00,weatherlink.com 1.10,2013-04-28 09:32:00,
2013-04-28 04:47:00,47.9,47.0,29.99,West,267,5.0,8.0,96,0.00,,,0.00,weatherlink.com 1.10,2013-04-28 09:47:00,
2013-04-28 05:02:00,47.9,47.0,29.99,West,267,7.0,9.0,96,0.00,,,0.00,weatherlink.com 1.10,2013-04-28 10:02:00,
2013-04-28 05:17:00,47.7,47.0,29.99,West,275,7.0,9.0,96,0.00,,,0.00,weatherlink.com 1.10,2013-04-28 10:17:00,
2013-04-28 05:32:00,47.6,47.0,29.99,West,279,6.0,11.0,96,0.00,,,0.00,weatherlink.com 1.10,2013-04-28 10:32:00,
2013-04-28 05:47:00,47.5,46.0,29.99,West,266,9.0,11.0,95,0.00,,,0.00,weatherlink.com 1.10,2013-04-28 10:47:00,
2013-04-28 06:02:00,47.4,46.0,30.00,WNW,300,6.0,12.0,95,0.00,,,0.00,weatherlink.com 1.10,2013-04-28 11:02:00,
2013-04-28 06:18:00,47.5,46.0,30.00,WNW,294,6.0,12.0,94,0.00,,,0.00,weatherlink.com 1.10,2013-04-28 11:18:00,
2013-04-28 06:33:00,47.4,46.0,30.00,West,275,6.0,11.0,94,0.00,,,0.00,weatherlink.com 1.10,2013-04-28 11:33:00,
2013-04-28 06:48:00,47.5,46.0,30.00,West,281,3.0,9.0,94,0.00,,,0.00,weatherlink.com 1.10,2013-04-28 11:48:00,
2013-04-28 07:03:00,47.5,46.0,30.00,West,281,5.0,8.0,95,0.00,,,0.00,weatherlink.com 1.10,2013-04-28 12:03:00,
2013-04-28 07:18:00,47.7,46.0,30.01,WNW,292,5.0,8.0,95,0.00,,,0.00,weatherlink.com 1.10,2013-04-28 12:18:00,
2013-04-28 07:33:00,47.7,46.0,30.00,NW,313,7.0,8.0,95,0.00,,,0.00,weatherlink.com 1.10,2013-04-28 12:33:00,
2013-04-28 07:48:00,47.7,46.0,30.01,NW,318,9.0,12.0,95,0.00,,,0.00,weatherlink.com 1.10,2013-04-28 12:48:00,
2013-04-28 08:03:00,47.6,46.0,30.03,NW,311,4.0,11.0,95,0.00,,,0.00,weatherlink.com 1.10,2013-04-28 13:03:00,
2013-04-28 08:18:00,47.9,47.0,30.04,West,266,10.0,12.0,95,0.00,,,0.00,weatherlink.com 1.10,2013-04-28 13:18:00,
2013-04-28 08:33:00,47.9,47.0,30.05,WSW,245,6.0,11.0,95,0.00,,,0.00,weatherlink.com 1.10,2013-04-28 13:33:00,
2013-04-28 08:48:00,48.0,46.0,30.05,West,276,8.0,12.0,94,0.00,,,0.00,weatherlink.com 1.10,2013-04-28 13:48:00,
2013-04-28 09:03:00,48.1,47.0,30.05,NW,311,7.0,13.0,94,0.00,,,0.00,weatherlink.com 1.10,2013-04-28 14:03:00,
2013-04-28 09:18:00,48.3,47.0,30.05,WNW,286,5.0,8.0,94,0.00,,,0.00,weatherlink.com 1.10,2013-04-28 14:18:00,
2013-04-28 09:33:00,48.5,47.0,30.05,West,267,5.0,8.0,94,0.00,,,0.00,weatherlink.com 1.10,2013-04-28 14:33:00,
2013-04-28 09:48:00,48.6,47.0,30.05,West,275,5.0,10.0,94,0.00,,,0.00,weatherlink.com 1.10,2013-04-28 14:48:00,
2013-04-28 10:03:00,48.7,47.0,30.05,West,272,7.0,11.0,93,0.00,,,0.00,weatherlink.com 1.10,2013-04-28 15:03:00,
2013-04-28 10:18:00,49.1,47.0,30.05,NW,318,6.0,10.0,93,0.00,,,0.00,weatherlink.com 1.10,2013-04-28 15:18:00,
2013-04-28 10:33:00,49.3,47.0,30.05,WNW,296,9.0,13.0,92,0.00,,,0.00,weatherlink.com 1.10,2013-04-28 15:33:00,
2013-04-28 10:48:00,49.7,48.0,30.04,NW,324,7.0,11.0,93,0.00,,,0.00,weatherlink.com 1.10,2013-04-28 15:48:00,
2013-04-28 11:03:00,50.2,48.0,30.04,West,260,9.0,14.0,92,0.00,,,0.00,weatherlink.com 1.10,2013-04-28 16:03:00,
2013-04-28 11:18:00,51.4,49.0,30.04,West,267,2.0,10.0,91,0.00,,,0.00,weatherlink.com 1.10,2013-04-28 16:18:00,
2013-04-28 11:33:00,52.8,50.0,30.04,SW,233,5.0,12.0,89,0.00,,,0.00,weatherlink.com 1.10,2013-04-28 16:33:00,
2013-04-28 11:48:00,54.0,50.0,30.03,WNW,301,8.0,13.0,87,0.00,,,0.00,weatherlink.com 1.10,2013-04-28 16:48:00,
2013-04-28 12:03:00,55.3,50.0,30.02,WNW,302,4.0,13.0,82,0.00,,,0.00,weatherlink.com 1.10,2013-04-28 17:03:00,
2013-04-28 12:18:00,56.2,51.0,30.02,WNW,289,5.0,12.0,83,0.00,,,0.00,weatherlink.com 1.10,2013-04-28 17:18:00,
2013-04-28 12:33:00,56.9,50.0,30.01,NW,315,7.0,12.0,78,0.00,,,0.00,weatherlink.com 1.10,2013-04-28 17:33:00,
2013-04-28 12:48:00,56.9,50.0,30.01,West,273,6.0,13.0,79,0.00,,,0.00,weatherlink.com 1.10,2013-04-28 17:48:00,
2013-04-28 13:03:00,58.7,52.0,30.00,West,279,3.0,12.0,77,0.00,,,0.00,weatherlink.com 1.10,2013-04-28 18:03:00,
2013-04-28 13:18:00,60.4,52.0,30.00,WNW,287,6.0,11.0,75,0.00,,,0.00,weatherlink.com 1.10,2013-04-28 18:18:00,
2013-04-28 13:33:00,60.1,51.0,29.99,West,271,3.0,7.0,73,0.00,,,0.00,weatherlink.com 1.10,2013-04-28 18:33:00,
2013-04-28 13:48:00,62.3,54.0,29.98,WNW,283,4.0,9.0,75,0.00,,,0.00,weatherlink.com 1.10,2013-04-28 18:48:00,
2013-04-28 14:03:00,62.2,52.0,29.98,WNW,294,5.0,11.0,69,0.00,,,0.00,weatherlink.com 1.10,2013-04-28 19:03:00,
2013-04-28 14:18:00,63.5,54.0,29.98,WNW,288,8.0,12.0,72,0.00,,,0.00,weatherlink.com 1.10,2013-04-28 19:18:00,
2013-04-28 14:33:00,64.2,54.0,29.98,West,277,7.0,12.0,69,0.00,,,0.00,weatherlink.com 1.10,2013-04-28 19:33:00,
2013-04-28 14:49:00,64.9,53.0,29.97,WNW,288,6.0,11.0,66,0.00,,,0.00,weatherlink.com 1.10,2013-04-28 19:49:00,
2013-04-28 15:04:00,66.3,54.0,29.96,WSW,257,3.0,9.0,65,0.00,,,0.00,weatherlink.com 1.10,2013-04-28 20:04:00,
2013-04-28 15:19:00,66.7,54.0,29.96,West,261,1.0,9.0,65,0.00,,,0.00,weatherlink.com 1.10,2013-04-28 20:19:00,
2013-04-28 15:34:00,66.8,52.0,29.95,NW,304,7.0,10.0,60,0.00,,,0.00,weatherlink.com 1.10,2013-04-28 20:34:00,
2013-04-28 15:49:00,67.3,53.0,29.94,West,280,8.0,8.0,61,0.00,,,0.00,weatherlink.com 1.10,2013-04-28 20:49:00,
2013-04-28 16:04:00,67.8,53.0,29.94,NNW,341,0.0,7.0,60,0.00,,,0.00,weatherlink.com 1.10,2013-04-28 21:04:00,
2013-04-28 16:19:00,68.4,52.0,29.94,WNW,288,4.0,11.0,56,0.00,,,0.00,weatherlink.com 1.10,2013-04-28 21:19:00,
2013-04-28 16:34:00,69.0,51.0,29.93,NW,313,2.0,6.0,53,0.00,,,0.00,weatherlink.com 1.10,2013-04-28 21:34:00,
2013-04-28 16:49:00,69.0,52.0,29.93,West,262,6.0,7.0,54,0.00,,,0.00,weatherlink.com 1.10,2013-04-28 21:49:00,
2013-04-28 17:04:00,70.2,52.0,29.93,WSW,252,1.0,6.0,52,0.00,,,0.00,weatherlink.com 1.10,2013-04-28 22:04:00,
2013-04-28 17:19:00,71.2,52.0,29.92,WNW,284,3.0,3.0,51,0.00,,,0.00,weatherlink.com 1.10,2013-04-28 22:19:00,
2013-04-28 17:34:00,69.9,51.0,29.92,WNW,291,0.0,5.0,52,0.00,,,0.00,weatherlink.com 1.10,2013-04-28 22:34:00,
2013-04-28 17:49:00,70.9,54.0,29.91,SW,225,3.0,6.0,55,0.00,,,0.00,weatherlink.com 1.10,2013-04-28 22:49:00,
2013-04-28 18:04:00,70.4,52.0,29.91,South,169,1.0,3.0,53,0.00,,,0.00,weatherlink.com 1.10,2013-04-28 23:04:00,
2013-04-28 18:19:00,69.6,53.0,29.91,South,169,0.0,2.0,56,0.00,,,0.00,weatherlink.com 1.10,2013-04-28 23:19:00,
2013-04-28 18:34:00,69.0,53.0,29.90,SW,217,4.0,5.0,58,0.00,,,0.00,weatherlink.com 1.10,2013-04-28 23:34:00,
2013-04-28 18:49:00,68.6,51.0,29.90,SW,219,0.0,4.0,54,0.00,,,0.00,weatherlink.com 1.10,2013-04-28 23:49:00,
2013-04-28 19:04:00,69.5,49.0,29.89,SW,227,3.0,3.0,49,0.00,,,0.00,weatherlink.com 1.10,2013-04-29 00:04:00,
2013-04-28 19:19:00,67.1,50.0,29.89,SW,227,0.0,4.0,55,0.00,,,0.00,weatherlink.com 1.10,2013-04-29 00:19:00,
2013-04-28 19:34:00,65.9,50.0,29.89,SW,227,0.0,2.0,57,0.00,,,0.00,weatherlink.com 1.10,2013-04-29 00:34:00,
2013-04-28 19:49:00,64.5,50.0,29.90,SW,227,1.0,2.0,59,0.00,,,0.00,weatherlink.com 1.10,2013-04-29 00:49:00,
2013-04-28 20:04:00,63.3,49.0,29.90,SSW,202,1.0,3.0,61,0.00,,,0.00,weatherlink.com 1.10,2013-04-29 01:04:00,
2013-04-28 20:19:00,62.0,50.0,29.90,SSW,202,0.0,1.0,64,0.00,,,0.00,weatherlink.com 1.10,2013-04-29 01:19:00,
2013-04-28 20:34:00,61.0,49.0,29.90,SSW,202,0.0,2.0,66,0.00,,,0.00,weatherlink.com 1.10,2013-04-29 01:34:00,
2013-04-28 20:49:00,60.5,49.0,29.90,SSW,202,1.0,1.0,67,0.00,,,0.00,weatherlink.com 1.10,2013-04-29 01:49:00,
2013-04-28 21:04:00,59.6,50.0,29.90,SSW,202,0.0,2.0,70,0.00,,,0.00,weatherlink.com 1.10,2013-04-29 02:04:00,
2013-04-28 21:19:00,58.4,50.0,29.90,SSW,202,0.0,1.0,73,0.00,,,0.00,weatherlink.com 1.10,2013-04-29 02:19:00,
2013-04-28 21:34:00,56.6,49.0,29.90,SSE,158,2.0,5.0,75,0.00,,,0.00,weatherlink.com 1.10,2013-04-29 02:34:00,
2013-04-28 21:49:00,56.1,48.0,29.90,SSE,159,1.0,5.0,75,0.00,,,0.00,weatherlink.com 1.10,2013-04-29 02:49:00,
2013-04-28 22:04:00,55.4,49.0,29.91,SSE,163,1.0,4.0,80,0.00,,,0.00,weatherlink.com 1.10,2013-04-29 03:04:00,
2013-04-28 22:19:00,55.5,49.0,29.91,South,188,4.0,6.0,80,0.00,,,0.00,weatherlink.com 1.10,2013-04-29 03:19:00,
2013-04-28 22:34:00,56.0,50.0,29.91,SSE,167,2.0,9.0,80,0.00,,,0.00,weatherlink.com 1.10,2013-04-29 03:34:00,
2013-04-28 22:49:00,55.9,50.0,29.91,SSE,167,2.0,7.0,81,0.00,,,0.00,weatherlink.com 1.10,2013-04-29 03:49:00,
2013-04-28 23:04:00,56.0,50.0,29.90,SSE,163,4.0,9.0,81,0.00,,,0.00,weatherlink.com 1.10,2013-04-29 04:04:00,
2013-04-28 23:19:00,55.7,50.0,29.90,South,169,3.0,8.0,81,0.00,,,0.00,weatherlink.com 1.10,2013-04-29 04:19:00,
2013-04-28 23:34:00,55.2,50.0,29.90,SSW,192,5.0,7.0,83,0.00,,,0.00,weatherlink.com 1.10,2013-04-29 04:34:00,
2013-04-28 23:49:00,55.2,50.0,29.90,SSW,194,6.0,8.0,83,0.00,,,0.00,weatherlink.com 1.10,2013-04-29 04:49:00,